Time,TemperatureF,DewpointF,PressureIn,WindDirection,WindDirectionDegrees,WindSpeedMPH,WindSpeedGustMPH,Humidity,HourlyPrecipIn,Conditions,Clouds,dailyrainin,SolarRadiationWatts/m^2,SoftwareType,DateUTC
2013-02-14 00:00:00,32.1,28.7,29.95,SSE,163,2.0,2.0,87,0.00,,,0.00,0,Wunderground v.1.15,2013-02-14 05:00:00,
2013-02-14 00:09:00,32.1,28.4,29.97,NW,315,3.0,3.0,86,0.00,,,0.00,0,Wunderground v.1.15,2013-02-14 05:09:00,
2013-02-14 00:15:00,32.2,28.5,29.97,NNW,342,4.0,4.0,86,0.00,,,0.00,0,Wunderground v.1.15,2013-02-14 05:15:00,
2013-02-14 00:20:00,32.3,28.9,29.97,West,264,4.0,4.0,87,0.00,,,0.00,0,Wunderground v.1.15,2013-02-14 05:20:00,
2013-02-14 00:25:00,32.2,28.5,29.97,NW,306,2.0,7.0,86,0.00,,,0.00,0,Wunderground v.1.15,2013-02-14 05:25:00,
2013-02-14 00:34:00,32.1,28.4,29.98,SW,233,1.0,7.0,86,0.00,,,0.00,0,Wunderground v.1.15,2013-02-14 05:34:00,
2013-02-14 00:40:00,32.0,28.3,29.98,SW,222,2.0,2.0,86,0.00,,,0.00,0,Wunderground v.1.15,2013-02-14 05:40:00,
2013-02-14 00:49:00,31.9,28.2,29.99,North,360,2.0,7.0,86,0.00,,,0.00,0,Wunderground v.1.15,2013-02-14 05:49:00,
2013-02-14 01:00:00,31.9,27.9,30.00,WNW,302,2.0,2.0,85,0.00,,,0.00,0,Wunderground v.1.15,2013-02-14 06:00:00,
2013-02-14 01:09:00,31.8,27.5,30.00,North,5,2.0,2.0,84,0.00,,,0.00,0,Wunderground v.1.15,2013-02-14 06:09:00,
2013-02-14 01:15:00,31.7,27.4,30.01,NW,315,2.0,6.0,84,0.00,,,0.00,0,Wunderground v.1.15,2013-02-14 06:15:00,
2013-02-14 01:20:00,31.7,27.4,30.00,WNW,302,2.0,2.0,84,0.00,,,0.00,0,Wunderground v.1.15,2013-02-14 06:20:00,
2013-02-14 01:29:00,31.5,26.9,30.00,WNW,285,3.0,10.0,83,0.00,,,0.00,0,Wunderground v.1.15,2013-02-14 06:29:00,
2013-02-14 01:34:00,31.5,26.9,30.00,West,276,5.0,10.0,83,0.00,,,0.00,0,Wunderground v.1.15,2013-02-14 06:34:00,
2013-02-14 01:40:00,31.5,26.9,30.00,West,273,6.0,6.0,83,0.00,,,0.00,0,Wunderground v.1.15,2013-02-14 06:40:00,
2013-02-14 01:45:00,31.4,26.8,30.00,North,355,5.0,7.0,83,0.00,,,0.00,0,Wunderground v.1.15,2013-02-14 06:45:00,
2013-02-14 01:50:00,31.3,26.7,30.00,NW,305,4.0,4.0,83,0.00,,,0.00,0,Wunderground v.1.15,2013-02-14 06:50:00,
2013-02-14 02:00:00,31.2,26.3,30.00,West,261,4.0,12.0,82,0.00,,,0.00,0,Wunderground v.1.15,2013-02-14 07:00:00,
2013-02-14 02:10:00,31.1,26.0,30.00,WSW,253,5.0,7.0,81,0.00,,,0.00,0,Wunderground v.1.15,2013-02-14 07:10:00,
2013-02-14 02:15:00,31.1,26.0,30.00,NW,304,4.0,7.0,81,0.00,,,0.00,0,Wunderground v.1.15,2013-02-14 07:15:00,
2013-02-14 02:20:00,31.1,26.0,30.00,West,265,4.0,7.0,81,0.00,,,0.00,0,Wunderground v.1.15,2013-02-14 07:20:00,
2013-02-14 02:29:00,31.1,26.0,30.00,West,275,5.0,5.0,81,0.00,,,0.00,0,Wunderground v.1.15,2013-02-14 07:29:00,
2013-02-14 02:35:00,31.0,25.9,30.01,SW,218,2.0,8.0,81,0.00,,,0.00,0,Wunderground v.1.15,2013-02-14 07:35:00,
2013-02-14 02:40:00,31.0,25.6,30.01,WNW,300,3.0,3.0,80,0.00,,,0.00,0,Wunderground v.1.15,2013-02-14 07:40:00,
2013-02-14 02:50:00,30.9,25.5,30.01,SSW,200,1.0,1.0,80,0.00,,,0.00,0,Wunderground v.1.15,2013-02-14 07:50:00,
2013-02-14 03:00:00,30.8,25.4,30.02,NNW,344,3.0,3.0,80,0.00,,,0.00,0,Wunderground v.1.15,2013-02-14 08:00:00,
2013-02-14 03:10:00,30.8,25.4,30.02,SW,223,3.0,3.0,80,0.00,,,0.00,0,Wunderground v.1.15,2013-02-14 08:10:00,
2013-02-14 03:15:00,30.8,25.4,30.02,West,265,3.0,5.0,80,0.00,,,0.00,0,Wunderground v.1.15,2013-02-14 08:15:00,
2013-02-14 03:25:00,30.8,25.4,30.02,West,267,4.0,6.0,80,0.00,,,0.00,0,Wunderground v.1.15,2013-02-14 08:25:00,
2013-02-14 03:30:00,30.7,25.3,30.02,WNW,289,3.0,3.0,80,0.00,,,0.00,0,Wunderground v.1.15,2013-02-14 08:30:00,
2013-02-14 03:35:00,30.7,25.3,30.01,SW,221,3.0,7.0,80,0.00,,,0.00,0,Wunderground v.1.15,2013-02-14 08:35:00,
2013-02-14 03:40:00,30.6,25.2,30.01,WNW,283,3.0,7.0,80,0.00,,,0.00,0,Wunderground v.1.15,2013-02-14 08:40:00,
2013-02-14 03:50:00,30.5,25.1,30.01,NNE,18,2.0,2.0,80,0.00,,,0.00,0,Wunderground v.1.15,2013-02-14 08:50:00,
2013-02-14 03:55:00,30.5,25.4,30.01,SSE,159,1.0,4.0,81,0.00,,,0.00,0,Wunderground v.1.15,2013-02-14 08:55:00,
2013-02-14 04:00:00,30.3,25.5,30.01,SE,141,1.0,1.0,82,0.00,,,0.00,0,Wunderground v.1.15,2013-02-14 09:00:00,
2013-02-14 04:10:00,30.0,24.9,30.02,South,173,1.0,1.0,81,0.00,,,0.00,0,Wunderground v.1.15,2013-02-14 09:10:00,
2013-02-14 04:20:00,29.8,25.0,30.03,NNE,21,0.0,7.0,82,0.00,,,0.00,0,Wunderground v.1.15,2013-02-14 09:20:00,
2013-02-14 04:25:00,29.7,24.9,30.02,West,277,1.0,7.0,82,0.00,,,0.00,0,Wunderground v.1.15,2013-02-14 09:25:00,
2013-02-14 04:30:00,29.7,24.6,30.03,SW,233,1.0,1.0,81,0.00,,,0.00,0,Wunderground v.1.15,2013-02-14 09:30:00,
2013-02-14 04:35:00,29.8,25.3,30.03,SW,232,0.0,7.0,83,0.00,,,0.00,0,Wunderground v.1.15,2013-02-14 09:35:00,
2013-02-14 04:40:00,29.7,25.2,30.03,SW,232,0.0,7.0,83,0.00,,,0.00,0,Wunderground v.1.15,2013-02-14 09:40:00,
2013-02-14 04:50:00,29.4,24.6,30.03,NW,311,1.0,1.0,82,0.00,,,0.00,0,Wunderground v.1.15,2013-02-14 09:50:00,
2013-02-14 05:00:00,29.4,24.3,30.03,South,184,0.0,7.0,81,0.00,,,0.00,0,Wunderground v.1.15,2013-02-14 10:00:00,
2013-02-14 05:10:00,29.3,24.8,30.03,South,184,0.0,7.0,83,0.00,,,0.00,0,Wunderground v.1.15,2013-02-14 10:10:00,
2013-02-14 05:20:00,29.0,24.5,30.04,SSW,192,0.0,7.0,83,0.00,,,0.00,0,Wunderground v.1.15,2013-02-14 10:20:00,
2013-02-14 05:30:00,28.7,23.9,30.04,WSW,250,0.0,7.0,82,0.00,,,0.00,0,Wunderground v.1.15,2013-02-14 10:30:00,
2013-02-14 05:35:00,28.7,24.2,30.05,WSW,250,0.0,7.0,83,0.00,,,0.00,0,Wunderground v.1.15,2013-02-14 10:35:00,
2013-02-14 05:40:00,28.5,24.0,30.05,WSW,250,0.0,7.0,83,0.00,,,0.00,0,Wunderground v.1.15,2013-02-14 10:40:00,
2013-02-14 05:45:00,28.5,23.7,30.06,NNW,334,0.0,7.0,82,0.00,,,0.00,0,Wunderground v.1.15,2013-02-14 10:45:00,
2013-02-14 05:50:00,28.4,24.2,30.06,NNW,334,0.0,7.0,84,0.00,,,0.00,0,Wunderground v.1.15,2013-02-14 10:50:00,
2013-02-14 06:00:00,28.1,24.2,30.06,NNW,334,0.0,7.0,85,0.00,,,0.00,0,Wunderground v.1.15,2013-02-14 11:00:00,
2013-02-14 06:10:00,27.8,23.3,30.07,NNW,336,0.0,7.0,83,0.00,,,0.00,0,Wunderground v.1.15,2013-02-14 11:10:00,
2013-02-14 06:20:00,27.9,23.4,30.08,NNW,336,0.0,7.0,83,0.00,,,0.00,0,Wunderground v.1.15,2013-02-14 11:20:00,
2013-02-14 06:30:00,27.8,23.9,30.08,NNW,336,0.0,7.0,85,0.00,,,0.00,0,Wunderground v.1.15,2013-02-14 11:30:00,
2013-02-14 06:35:00,27.6,23.4,30.08,NNW,336,0.0,7.0,84,0.00,,,0.00,0,Wunderground v.1.15,2013-02-14 11:35:00,
2013-02-14 06:40:00,27.5,23.3,30.08,NNW,336,0.0,7.0,84,0.00,,,0.00,0,Wunderground v.1.15,2013-02-14 11:40:00,
2013-02-14 06:50:00,27.4,23.5,30.09,NNW,336,0.0,7.0,85,0.00,,,0.00,0,Wunderground v.1.15,2013-02-14 11:50:00,
2013-02-14 07:00:00,27.2,23.3,30.09,NNW,336,0.0,7.0,85,0.00,,,0.00,0,Wunderground v.1.15,2013-02-14 12:00:00,
2013-02-14 07:10:00,27.1,23.5,30.09,NNW,336,0.0,7.0,86,0.00,,,0.00,0,Wunderground v.1.15,2013-02-14 12:10:00,
2013-02-14 07:15:00,27.0,23.4,30.10,NNW,336,0.0,7.0,86,0.00,,,0.00,0,Wunderground v.1.15,2013-02-14 12:15:00,
2013-02-14 07:20:00,26.9,23.3,30.10,NNW,336,0.0,7.0,86,0.00,,,0.00,5,Wunderground v.1.15,2013-02-14 12:20:00,
2013-02-14 07:30:00,26.7,23.4,30.11,NNW,336,0.0,7.0,87,0.00,,,0.00,7,Wunderground v.1.15,2013-02-14 12:30:00,
2013-02-14 07:40:00,26.6,23.3,30.12,NNW,336,0.0,7.0,87,0.00,,,0.00,9,Wunderground v.1.15,2013-02-14 12:40:00,
2013-02-14 07:45:00,26.6,23.3,30.12,NNW,336,0.0,7.0,87,0.00,,,0.00,11,Wunderground v.1.15,2013-02-14 12:45:00,
2013-02-14 07:55:00,26.6,23.5,30.13,NNW,336,0.0,7.0,88,0.00,,,0.00,12,Wunderground v.1.15,2013-02-14 12:55:00,
2013-02-14 08:00:00,26.7,23.6,30.14,NNW,336,0.0,7.0,88,0.00,,,0.00,14,Wunderground v.1.15,2013-02-14 13:00:00,
2013-02-14 08:10:00,26.8,24.0,30.14,NNW,336,0.0,7.0,89,0.00,,,0.00,16,Wunderground v.1.15,2013-02-14 13:10:00,
2013-02-14 08:20:00,27.0,24.5,30.15,NNW,336,0.0,7.0,90,0.00,,,0.00,16,Wunderground v.1.15,2013-02-14 13:20:00,
2013-02-14 08:25:00,27.1,24.6,30.16,NNW,336,0.0,7.0,90,0.00,,,0.00,18,Wunderground v.1.15,2013-02-14 13:25:00,
2013-02-14 08:30:00,27.2,24.7,30.16,NNW,336,0.0,7.0,90,0.00,,,0.00,18,Wunderground v.1.15,2013-02-14 13:30:00,
2013-02-14 08:35:00,27.4,24.9,30.16,NNW,336,0.0,7.0,90,0.00,,,0.00,19,Wunderground v.1.15,2013-02-14 13:35:00,
2013-02-14 08:45:00,27.6,24.8,30.17,NNW,336,0.0,7.0,89,0.00,,,0.00,19,Wunderground v.1.15,2013-02-14 13:45:00,
2013-02-14 08:55:00,27.9,24.3,30.16,NNW,336,0.0,7.0,86,0.00,,,0.00,49,Wunderground v.1.15,2013-02-14 13:55:00,
2013-02-14 09:00:00,28.2,24.3,30.17,NNW,336,1.0,7.0,85,0.00,,,0.00,32,Wunderground v.1.15,2013-02-14 14:00:00,
2013-02-14 09:10:00,29.2,24.1,30.17,NW,318,2.0,7.0,81,0.00,,,0.00,93,Wunderground v.1.15,2013-02-14 14:10:00,
2013-02-14 09:20:00,29.9,23.6,30.17,WNW,296,0.0,7.0,77,0.00,,,0.00,69,Wunderground v.1.15,2013-02-14 14:20:00,
2013-02-14 09:25:00,30.1,22.8,30.17,WNW,296,0.0,7.0,74,0.00,,,0.00,90,Wunderground v.1.15,2013-02-14 14:25:00,
2013-02-14 09:30:00,30.5,21.9,30.17,NW,319,1.0,1.0,70,0.00,,,0.00,26,Wunderground v.1.15,2013-02-14 14:30:00,
2013-02-14 09:35:00,30.8,22.8,30.18,NW,318,1.0,7.0,72,0.00,,,0.00,26,Wunderground v.1.15,2013-02-14 14:35:00,
2013-02-14 09:40:00,31.1,23.1,30.18,WNW,293,0.0,7.0,72,0.00,,,0.00,30,Wunderground v.1.15,2013-02-14 14:40:00,
2013-02-14 09:50:00,31.6,23.6,30.18,West,278,0.0,7.0,72,0.00,,,0.00,70,Wunderground v.1.15,2013-02-14 14:50:00,
2013-02-14 09:55:00,31.8,23.8,30.18,West,278,0.0,7.0,72,0.00,,,0.00,32,Wunderground v.1.15,2013-02-14 14:55:00,
2013-02-14 10:00:00,31.9,23.9,30.18,West,278,0.0,7.0,72,0.00,,,0.00,30,Wunderground v.1.15,2013-02-14 15:00:00,
2013-02-14 10:10:00,32.1,23.8,30.17,West,278,0.0,7.0,71,0.00,,,0.00,33,Wunderground v.1.15,2013-02-14 15:10:00,
2013-02-14 10:20:00,32.4,23.7,30.17,West,262,0.0,7.0,70,0.00,,,0.00,65,Wunderground v.1.15,2013-02-14 15:20:00,
2013-02-14 10:25:00,32.5,22.8,30.17,West,262,0.0,7.0,67,0.00,,,0.00,42,Wunderground v.1.15,2013-02-14 15:25:00,
2013-02-14 10:35:00,33.0,23.9,30.18,West,262,0.0,7.0,69,0.00,,,0.00,51,Wunderground v.1.15,2013-02-14 15:35:00,
2013-02-14 10:40:00,33.2,23.8,30.18,West,262,0.0,7.0,68,0.00,,,0.00,54,Wunderground v.1.15,2013-02-14 15:40:00,
2013-02-14 10:50:00,33.8,24.7,30.18,West,263,0.0,7.0,69,0.00,,,0.00,76,Wunderground v.1.15,2013-02-14 15:50:00,
2013-02-14 10:55:00,34.3,25.5,30.18,West,263,1.0,7.0,70,0.00,,,0.00,35,Wunderground v.1.15,2013-02-14 15:55:00,
2013-02-14 11:00:00,34.4,25.3,30.17,WSW,250,0.0,7.0,69,0.00,,,0.00,37,Wunderground v.1.15,2013-02-14 16:00:00,
2013-02-14 11:10:00,35.2,25.7,30.16,SSW,196,1.0,7.0,68,0.00,,,0.00,42,Wunderground v.1.15,2013-02-14 16:10:00,
2013-02-14 11:15:00,35.5,25.3,30.16,SSW,193,1.0,7.0,66,0.00,,,0.00,47,Wunderground v.1.15,2013-02-14 16:15:00,
2013-02-14 11:20:00,35.9,26.0,30.16,South,186,0.0,7.0,67,0.00,,,0.00,134,Wunderground v.1.15,2013-02-14 16:20:00,
2013-02-14 11:30:00,36.8,25.4,30.16,SSE,164,0.0,7.0,63,0.00,,,0.00,148,Wunderground v.1.15,2013-02-14 16:30:00,
2013-02-14 11:40:00,37.9,25.6,30.16,SSW,209,1.0,1.0,61,0.00,,,0.00,626,Wunderground v.1.15,2013-02-14 16:40:00,
2013-02-14 11:50:00,39.2,26.9,30.17,WSW,238,0.0,7.0,61,0.00,,,0.00,418,Wunderground v.1.15,2013-02-14 16:50:00,
2013-02-14 11:55:00,40.0,27.6,30.17,WSW,258,1.0,7.0,61,0.00,,,0.00,589,Wunderground v.1.15,2013-02-14 16:55:00,
2013-02-14 12:00:00,40.5,27.3,30.17,SSW,209,1.0,1.0,59,0.00,,,0.00,346,Wunderground v.1.15,2013-02-14 17:00:00,
2013-02-14 12:10:00,41.1,27.9,30.17,SSW,195,0.0,7.0,59,0.00,,,0.00,420,Wunderground v.1.15,2013-02-14 17:10:00,
2013-02-14 12:15:00,41.6,28.3,30.16,SW,222,0.0,7.0,59,0.00,,,0.00,443,Wunderground v.1.15,2013-02-14 17:15:00,
2013-02-14 12:20:00,42.1,29.2,30.15,WSW,250,0.0,7.0,60,0.00,,,0.00,406,Wunderground v.1.15,2013-02-14 17:20:00,
2013-02-14 12:25:00,42.5,28.3,30.15,West,260,1.0,7.0,57,0.00,,,0.00,367,Wunderground v.1.15,2013-02-14 17:25:00,
2013-02-14 12:30:00,42.8,29.0,30.15,WNW,302,1.0,7.0,58,0.00,,,0.00,448,Wunderground v.1.15,2013-02-14 17:30:00,
2013-02-14 12:40:00,43.5,30.1,30.16,ENE,64,1.0,7.0,59,0.00,,,0.00,582,Wunderground v.1.15,2013-02-14 17:40:00,
2013-02-14 12:45:00,43.8,29.1,30.16,South,189,1.0,7.0,56,0.00,,,0.00,652,Wunderground v.1.15,2013-02-14 17:45:00,
2013-02-14 12:55:00,44.4,29.2,30.16,South,175,1.0,7.0,55,0.00,,,0.00,703,Wunderground v.1.15,2013-02-14 17:55:00,
2013-02-14 13:00:00,44.4,29.7,30.15,SW,229,1.0,1.0,56,0.00,,,0.00,703,Wunderground v.1.15,2013-02-14 18:00:00,
2013-02-14 13:10:00,45.7,30.4,30.14,SSW,213,1.0,7.0,55,0.00,,,0.00,707,Wunderground v.1.15,2013-02-14 18:10:00,
2013-02-14 13:15:00,45.8,32.3,30.14,South,191,2.0,7.0,59,0.00,,,0.00,703,Wunderground v.1.15,2013-02-14 18:15:00,
2013-02-14 13:20:00,45.8,30.1,30.14,WNW,288,2.0,2.0,54,0.00,,,0.00,698,Wunderground v.1.15,2013-02-14 18:20:00,
2013-02-14 13:25:00,45.9,29.7,30.13,South,175,1.0,7.0,53,0.00,,,0.00,696,Wunderground v.1.15,2013-02-14 18:25:00,
2013-02-14 13:30:00,46.1,31.7,30.13,SSE,161,1.0,7.0,57,0.00,,,0.00,696,Wunderground v.1.15,2013-02-14 18:30:00,
2013-02-14 13:40:00,46.6,31.3,30.13,West,281,1.0,1.0,55,0.00,,,0.00,686,Wunderground v.1.15,2013-02-14 18:40:00,
2013-02-14 13:50:00,46.9,31.1,30.12,West,263,1.0,7.0,54,0.00,,,0.00,671,Wunderground v.1.15,2013-02-14 18:50:00,
2013-02-14 14:00:00,46.7,30.9,30.12,SSW,210,1.0,7.0,54,0.00,,,0.00,661,Wunderground v.1.15,2013-02-14 19:00:00,
2013-02-14 14:10:00,47.2,31.4,30.11,SE,139,1.0,7.0,54,0.00,,,0.00,647,Wunderground v.1.15,2013-02-14 19:10:00,
2013-02-14 14:20:00,47.7,31.9,30.11,ENE,57,1.0,7.0,54,0.00,,,0.00,629,Wunderground v.1.15,2013-02-14 19:20:00,
2013-02-14 14:30:00,47.8,31.0,30.10,NE,37,2.0,2.0,52,0.00,,,0.00,613,Wunderground v.1.15,2013-02-14 19:30:00,
2013-02-14 14:35:00,47.9,32.9,30.10,South,173,2.0,7.0,56,0.00,,,0.00,605,Wunderground v.1.15,2013-02-14 19:35:00,
2013-02-14 14:45:00,47.7,30.9,30.10,South,190,2.0,7.0,52,0.00,,,0.00,589,Wunderground v.1.15,2013-02-14 19:45:00,
2013-02-14 14:50:00,47.9,32.5,30.11,WNW,283,1.0,7.0,55,0.00,,,0.00,577,Wunderground v.1.15,2013-02-14 19:50:00,
2013-02-14 15:00:00,48.1,32.2,30.12,West,261,1.0,1.0,54,0.00,,,0.00,554,Wunderground v.1.15,2013-02-14 20:00:00,
2013-02-14 15:10:00,48.3,32.9,30.13,WSW,245,1.0,1.0,55,0.00,,,0.00,531,Wunderground v.1.15,2013-02-14 20:10:00,
2013-02-14 15:15:00,48.3,31.9,30.13,SW,219,1.0,7.0,53,0.00,,,0.00,517,Wunderground v.1.15,2013-02-14 20:15:00,
2013-02-14 15:20:00,48.6,33.1,30.13,SSW,200,1.0,7.0,55,0.00,,,0.00,462,Wunderground v.1.15,2013-02-14 20:20:00,
2013-02-14 15:25:00,49.0,32.6,30.13,SSW,209,1.0,7.0,53,0.00,,,0.00,497,Wunderground v.1.15,2013-02-14 20:25:00,
2013-02-14 15:30:00,49.2,31.8,30.13,South,188,1.0,1.0,51,0.00,,,0.00,478,Wunderground v.1.15,2013-02-14 20:30:00,
2013-02-14 15:40:00,49.7,33.7,30.12,South,190,0.0,7.0,54,0.00,,,0.00,455,Wunderground v.1.15,2013-02-14 20:40:00,
2013-02-14 15:45:00,50.0,34.0,30.11,SW,236,0.0,7.0,54,0.00,,,0.00,441,Wunderground v.1.15,2013-02-14 20:45:00,
2013-02-14 15:55:00,50.2,32.8,30.12,South,187,1.0,3.0,51,0.00,,,0.00,415,Wunderground v.1.15,2013-02-14 20:55:00,
2013-02-14 16:00:00,50.1,31.7,30.12,WSW,249,1.0,7.0,49,0.00,,,0.00,401,Wunderground v.1.15,2013-02-14 21:00:00,
2013-02-14 16:10:00,49.8,29.8,30.12,West,276,1.0,7.0,46,0.00,,,0.00,371,Wunderground v.1.15,2013-02-14 21:10:00,
2013-02-14 16:15:00,49.7,27.5,30.13,WSW,258,2.0,7.0,42,0.00,,,0.00,355,Wunderground v.1.15,2013-02-14 21:15:00,
2013-02-14 16:20:00,49.6,26.8,30.13,West,259,2.0,2.0,41,0.00,,,0.00,338,Wunderground v.1.15,2013-02-14 21:20:00,
2013-02-14 16:25:00,49.6,26.2,30.13,NW,323,2.0,4.0,40,0.00,,,0.00,323,Wunderground v.1.15,2013-02-14 21:25:00,
2013-02-14 16:35:00,48.9,26.2,30.13,NW,313,5.0,8.0,41,0.00,,,0.00,292,Wunderground v.1.15,2013-02-14 21:35:00,
2013-02-14 16:40:00,48.6,25.9,30.13,NW,313,5.0,5.0,41,0.00,,,0.00,276,Wunderground v.1.15,2013-02-14 21:40:00,
2013-02-14 16:45:00,48.3,25.7,30.13,NW,311,4.0,7.0,41,0.00,,,0.00,258,Wunderground v.1.15,2013-02-14 21:45:00,
2013-02-14 16:50:00,47.7,25.1,30.13,NNE,18,5.0,7.0,41,0.00,,,0.00,243,Wunderground v.1.15,2013-02-14 21:50:00,
2013-02-14 17:00:00,46.8,25.5,30.13,West,259,4.0,7.0,43,0.00,,,0.00,209,Wunderground v.1.15,2013-02-14 22:00:00,
2013-02-14 17:10:00,46.7,25.4,30.13,West,281,5.0,5.0,43,0.00,,,0.00,179,Wunderground v.1.15,2013-02-14 22:10:00,
2013-02-14 17:15:00,46.6,25.8,30.13,WNW,284,4.0,7.0,44,0.00,,,0.00,162,Wunderground v.1.15,2013-02-14 22:15:00,
2013-02-14 17:20:00,46.7,26.5,30.13,WNW,297,2.0,7.0,45,0.00,,,0.00,142,Wunderground v.1.15,2013-02-14 22:20:00,
2013-02-14 17:30:00,46.6,26.9,30.14,WNW,303,2.0,2.0,46,0.00,,,0.00,100,Wunderground v.1.15,2013-02-14 22:30:00,
2013-02-14 17:35:00,46.4,25.6,30.13,NW,315,2.0,5.0,44,0.00,,,0.00,81,Wunderground v.1.15,2013-02-14 22:35:00,
2013-02-14 17:40:00,46.2,26.5,30.14,WNW,290,2.0,2.0,46,0.00,,,0.00,60,Wunderground v.1.15,2013-02-14 22:40:00,
2013-02-14 17:45:00,45.9,26.3,30.14,NNW,329,2.0,3.0,46,0.00,,,0.00,44,Wunderground v.1.15,2013-02-14 22:45:00,
2013-02-14 17:50:00,45.6,26.5,30.14,West,281,2.0,7.0,47,0.00,,,0.00,32,Wunderground v.1.15,2013-02-14 22:50:00,
2013-02-14 18:00:00,44.8,26.3,30.14,South,169,1.0,7.0,48,0.00,,,0.00,7,Wunderground v.1.15,2013-02-14 23:00:00,
2013-02-14 18:10:00,44.2,27.7,30.14,WNW,292,0.0,7.0,52,0.00,,,0.00,0,Wunderground v.1.15,2013-02-14 23:10:00,
2013-02-14 18:15:00,43.9,28.3,30.14,WNW,292,0.0,7.0,54,0.00,,,0.00,0,Wunderground v.1.15,2013-02-14 23:15:00,
2013-02-14 18:20:00,43.5,27.5,30.14,WNW,292,0.0,7.0,53,0.00,,,0.00,0,Wunderground v.1.15,2013-02-14 23:20:00,
2013-02-14 18:30:00,42.7,26.7,30.14,SSW,194,0.0,7.0,53,0.00,,,0.00,0,Wunderground v.1.15,2013-02-14 23:30:00,
2013-02-14 18:35:00,42.3,27.3,30.14,NNW,335,1.0,7.0,55,0.00,,,0.00,0,Wunderground v.1.15,2013-02-14 23:35:00,
2013-02-14 18:40:00,42.0,27.9,30.15,NNW,335,1.0,1.0,57,0.00,,,0.00,0,Wunderground v.1.15,2013-02-14 23:40:00,
2013-02-14 18:50:00,41.3,26.8,30.16,NNW,342,0.0,7.0,56,0.00,,,0.00,0,Wunderground v.1.15,2013-02-14 23:50:00,
2013-02-14 19:00:00,41.0,26.5,30.16,NNW,340,1.0,7.0,56,0.00,,,0.00,0,Wunderground v.1.15,2013-02-15 00:00:00,
2013-02-14 19:10:00,40.9,26.8,30.15,South,172,3.0,7.0,57,0.00,,,0.00,0,Wunderground v.1.15,2013-02-15 00:10:00,
2013-02-14 19:15:00,40.7,27.1,30.15,WSW,248,3.0,7.0,58,0.00,,,0.00,0,Wunderground v.1.15,2013-02-15 00:15:00,
2013-02-14 19:25:00,40.5,27.3,30.15,WNW,294,3.0,7.0,59,0.00,,,0.00,0,Wunderground v.1.15,2013-02-15 00:25:00,
2013-02-14 19:30:00,40.2,27.4,30.14,NNW,343,3.0,8.0,60,0.00,,,0.00,0,Wunderground v.1.15,2013-02-15 00:30:00,
2013-02-14 19:35:00,40.0,27.6,30.15,NW,317,3.0,8.0,61,0.00,,,0.00,0,Wunderground v.1.15,2013-02-15 00:35:00,
2013-02-14 19:40:00,39.8,27.4,30.15,NNW,333,4.0,7.0,61,0.00,,,0.00,0,Wunderground v.1.15,2013-02-15 00:40:00,
2013-02-14 19:45:00,39.7,27.7,30.15,NW,323,4.0,7.0,62,0.00,,,0.00,0,Wunderground v.1.15,2013-02-15 00:45:00,
2013-02-14 19:55:00,39.4,27.5,30.15,NW,310,4.0,6.0,62,0.00,,,0.00,0,Wunderground v.1.15,2013-02-15 00:55:00,
2013-02-14 20:00:00,39.4,27.5,30.15,WNW,286,5.0,5.0,62,0.00,,,0.00,0,Wunderground v.1.15,2013-02-15 01:00:00,
2013-02-14 20:10:00,39.3,27.7,30.15,WNW,302,4.0,4.0,63,0.00,,,0.00,0,Wunderground v.1.15,2013-02-15 01:10:00,
2013-02-14 20:20:00,39.0,27.8,30.15,NW,313,3.0,7.0,64,0.00,,,0.00,0,Wunderground v.1.15,2013-02-15 01:20:00,
2013-02-14 20:25:00,38.9,27.8,30.15,NNW,327,3.0,7.0,64,0.00,,,0.00,0,Wunderground v.1.15,2013-02-15 01:25:00,
2013-02-14 20:35:00,38.9,28.1,30.15,NW,322,3.0,7.0,65,0.00,,,0.00,0,Wunderground v.1.15,2013-02-15 01:35:00,
2013-02-14 20:40:00,38.8,28.0,30.15,NNW,336,3.0,7.0,65,0.00,,,0.00,0,Wunderground v.1.15,2013-02-15 01:40:00,
2013-02-14 20:50:00,38.6,28.2,30.15,NW,321,2.0,7.0,66,0.00,,,0.00,0,Wunderground v.1.15,2013-02-15 01:50:00,
2013-02-14 20:55:00,38.5,28.1,30.15,North,355,2.0,7.0,66,0.00,,,0.00,0,Wunderground v.1.15,2013-02-15 01:55:00,
2013-02-14 21:00:00,38.4,28.0,30.15,NNW,332,1.0,7.0,66,0.00,,,0.00,0,Wunderground v.1.15,2013-02-15 02:00:00,
2013-02-14 21:10:00,38.2,28.6,30.15,NNW,332,0.0,7.0,68,0.00,,,0.00,0,Wunderground v.1.15,2013-02-15 02:10:00,
2013-02-14 21:20:00,37.7,28.1,30.15,NNE,14,0.0,7.0,68,0.00,,,0.00,0,Wunderground v.1.15,2013-02-15 02:20:00,
2013-02-14 21:25:00,37.5,28.2,30.16,NNW,344,0.0,7.0,69,0.00,,,0.00,0,Wunderground v.1.15,2013-02-15 02:25:00,
2013-02-14 21:35:00,37.3,28.1,30.16,NNE,20,0.0,7.0,69,0.00,,,0.00,0,Wunderground v.1.15,2013-02-15 02:35:00,
2013-02-14 21:40:00,37.2,28.7,30.16,NNE,20,0.0,7.0,71,0.00,,,0.00,0,Wunderground v.1.15,2013-02-15 02:40:00,
2013-02-14 21:50:00,36.8,29.0,30.17,NNE,20,0.0,7.0,73,0.00,,,0.00,0,Wunderground v.1.15,2013-02-15 02:50:00,
2013-02-14 21:55:00,36.4,28.6,30.18,NNE,20,0.0,7.0,73,0.00,,,0.00,0,Wunderground v.1.15,2013-02-15 02:55:00,
2013-02-14 22:00:00,36.1,28.6,30.18,NNE,19,0.0,7.0,74,0.00,,,0.00,0,Wunderground v.1.15,2013-02-15 03:00:00,
2013-02-14 22:10:00,35.6,28.8,30.18,NNE,19,0.0,7.0,76,0.00,,,0.00,0,Wunderground v.1.15,2013-02-15 03:10:00,
2013-02-14 22:20:00,35.2,28.7,30.18,NNE,20,0.0,7.0,77,0.00,,,0.00,0,Wunderground v.1.15,2013-02-15 03:20:00,
2013-02-14 22:25:00,35.0,28.5,30.18,NNE,19,0.0,7.0,77,0.00,,,0.00,0,Wunderground v.1.15,2013-02-15 03:25:00,
2013-02-14 22:30:00,34.9,28.4,30.18,NNE,20,0.0,7.0,77,0.00,,,0.00,0,Wunderground v.1.15,2013-02-15 03:30:00,
2013-02-14 22:35:00,34.9,28.7,30.18,NNE,20,0.0,7.0,78,0.00,,,0.00,0,Wunderground v.1.15,2013-02-15 03:35:00,
2013-02-14 22:40:00,34.9,28.7,30.18,NNE,19,0.0,7.0,78,0.00,,,0.00,0,Wunderground v.1.15,2013-02-15 03:40:00,
2013-02-14 22:50:00,35.3,29.1,30.18,NNE,19,0.0,7.0,78,0.00,,,0.00,0,Wunderground v.1.15,2013-02-15 03:50:00,
2013-02-14 23:00:00,35.6,29.1,30.18,NNE,19,0.0,7.0,77,0.00,,,0.00,0,Wunderground v.1.15,2013-02-15 04:00:00,
2013-02-14 23:10:00,35.6,29.1,30.18,NNE,20,0.0,7.0,77,0.00,,,0.00,0,Wunderground v.1.15,2013-02-15 04:10:00,
2013-02-14 23:15:00,35.6,29.1,30.18,NNE,19,0.0,7.0,77,0.00,,,0.00,0,Wunderground v.1.15,2013-02-15 04:15:00,
2013-02-14 23:20:00,35.7,29.2,30.18,NNE,19,0.0,7.0,77,0.00,,,0.00,0,Wunderground v.1.15,2013-02-15 04:20:00,
2013-02-14 23:30:00,35.9,29.1,30.17,NNE,17,0.0,7.0,76,0.00,,,0.00,0,Wunderground v.1.15,2013-02-15 04:30:00,
2013-02-14 23:35:00,36.1,28.9,30.18,North,350,0.0,7.0,75,0.00,,,0.00,0,Wunderground v.1.15,2013-02-15 04:35:00,
2013-02-14 23:40:00,36.2,29.4,30.18,North,350,0.0,7.0,76,0.00,,,0.00,0,Wunderground v.1.15,2013-02-15 04:40:00,
2013-02-14 23:50:00,36.4,29.2,30.18,NNW,348,1.0,7.0,75,0.00,,,0.00,0,Wunderground v.1.15,2013-02-15 04:50:00,